Location: Thiviers
(45.4167°N, 0.9167°E)
Time: 02:44:33
(UTC+01:00)

ISS - Visible Passes

Search period start: 16 December 2017 00:00
Search period end: 26 December 2017 00:00
Orbit: 402 x 406 km, 51.6° (Epoch: 16 December)

Date Brightness Start Highest point End Pass type
(mag) Time Alt. Az. Time Alt. Az. Time Alt. Az.
16 Dec -1.5 18:39:11 10° W 18:41:57 25° SW 18:44:43 10° SSE visible
17 Dec -2.5 17:46:41 10° WNW 17:49:50 44° SW 17:52:58 10° SE visible
18 Dec -0.4 18:32:18 10° WSW 18:33:36 12° SW 18:34:55 10° SSW visible
25 Dec -0.5 07:35:52 10° SSE 07:37:42 14° SE 07:39:32 10° E visible
